Location: Burgerwiesen
(48.6500°N, 15.6167°E)
Time: 04:22:57
(UTC+00:00)

STARLINK-1241 - Pass Details

Date: 09 April 2020
Orbit: 548 x 551 km, 53.0° (Epoch: 01 June)

Event Time Altitude Azimuth Distance (km) Brightness Sun altitude
Rises 20:06:10 0° 295° (WNW) 2,729 8.4 -21.9°
Reaches altitude 10° 20:08:27 10° 289° (WNW) 1,832 7.2 -22.2°
Enters shadow 20:12:20 46° 221° (SW) 746 4.2 -22.6°
